Weather History for PADQ - November, 2010

Change the Weather History Date:

Friday, November 26, 2010

  Actual Average Record
Temperature  
Mean Temperature 35 °F 32 °F  
Max Temperature 37 °F 37 °F 51 °F (1981)
Min Temperature 32 °F 27 °F 7 °F (2011)
Degree Days  
Heating Degree Days 30 33  
Month to date heating degree days 768 802  
Since 1 July heating degree days 2567 2660  
Cooling Degree Days 0    
Month to date cooling degree days 0  
Year to date cooling degree days 0  
Moisture  
Dew Point 20 °F    
Average Humidity 0    
Maximum Humidity 0    
Minimum Humidity 0    
Precipitation  
Precipitation 0.00 in 0.25 in 1.83 in (1978)
Month to date precipitation 1.67 5.85  
Year to date precipitation 64.21 68.25  
Snow  
Snow 0.00 in 0.40 in 2.30 in (2006)
Month to date snowfall T 5.0  
Since 1 July snowfall T 6.1  
Since 1 September snowfall 0.0 6.1  
Snow Depth 0.00 in    
Sea Level Pressure  
Sea Level Pressure 29.88 in    
Wind  
Wind Speed 13 mph (West)    
Max Wind Speed 25 mph    
Max Gust Speed 35 mph    
Visibility 10 miles    
Events      
T = Trace of Precipitation, MM = Missing Value Source: NWS Daily Summary

Daily Weather History Graph

Daily Weather History Graph

Search for Another Location

Airport or City:

Trip Planner

Search our weather history database for the weather conditions in past years. The results will help you decide how hot, cold, wet, or windy it might be!

Date:

Astronomy

Nov. 26, 2010 Rise Set
Actual Time 9:19 AM AKST 4:35 PM AKST
Civil Twilight 8:31 AM AKST 5:22 PM AKST
Nautical Twilight 7:41 AM AKST 6:12 PM AKST
Astronomical Twilight 6:54 AM AKST 6:59 PM AKST
Moon 10:24 PM AKST (11/26) 1:09 PM AKST (11/26)
Length of Visible Light 8h 51m
Length of Day
7h 16m
Waning Gibbous, 72% of the Moon is Illuminated
Nov 26
Waning Gibbous
Nov 28
Last Quarter
Dec 5
New
Dec 13
First Quarter
Dec 20
Full

Hourly Weather History & Observations

Time (AKST) Temp. Windchill Dew Point Humidity Pressure Visibility Wind Dir Wind Speed Gust Speed Precip Events Conditions
12:53 AM 33.1 °F 23.0 °F 12.9 °F 43% 29.73 in 10.0 mi WNW 15.0 mph 34.5 mph N/A   Clear
1:53 AM 34.0 °F 22.7 °F 15.1 °F 46% 29.74 in 10.0 mi WNW 19.6 mph 31.1 mph N/A   Clear
2:53 AM 34.0 °F 26.0 °F 15.1 °F 46% 29.76 in 10.0 mi West 10.4 mph 19.6 mph N/A   Clear
3:53 AM 34.0 °F 23.0 °F 17.1 °F 50% 29.78 in 10.0 mi WNW 18.4 mph 31.1 mph N/A   Clear
4:53 AM 34.0 °F 23.4 °F 15.1 °F 46% 29.81 in 10.0 mi West 17.3 mph 24.2 mph N/A   Clear
5:53 AM 34.0 °F 23.8 °F 17.1 °F 50% 29.82 in 10.0 mi West 16.1 mph 25.3 mph N/A   Clear
6:53 AM 34.0 °F 26.6 °F 18.0 °F 52% 29.84 in 10.0 mi West 9.2 mph 21.9 mph N/A   Clear
7:53 AM 34.0 °F 22.7 °F 19.0 °F 54% 29.86 in 10.0 mi WNW 19.6 mph 26.5 mph N/A   Partly Cloudy
8:53 AM 33.1 °F 23.9 °F 17.1 °F 52% 29.89 in 10.0 mi WNW 12.7 mph 23.0 mph N/A   Scattered Clouds
9:53 AM 34.0 °F 24.2 °F 15.1 °F 46% 29.91 in 10.0 mi West 15.0 mph - N/A   Scattered Clouds
10:53 AM 34.0 °F 25.0 °F 18.0 °F 52% 29.92 in 10.0 mi West 12.7 mph - N/A   Scattered Clouds
11:53 AM 36.0 °F 27.5 °F 19.9 °F 52% 29.94 in 10.0 mi West 12.7 mph 19.6 mph N/A   Scattered Clouds
12:53 PM 36.0 °F 28.0 °F 19.0 °F 50% 29.93 in 10.0 mi West 11.5 mph 21.9 mph N/A   Mostly Cloudy
1:53 PM 37.0 °F 28.5 °F 18.0 °F 46% 29.94 in 10.0 mi West 13.8 mph 19.6 mph N/A   Mostly Cloudy
2:53 PM 37.9 °F 34.4 °F 16.0 °F 41% 29.95 in 10.0 mi Variable 4.6 mph 23.0 mph N/A   Mostly Cloudy
3:53 PM 39.0 °F 34.8 °F 17.1 °F 41% 29.94 in 10.0 mi West 5.8 mph - N/A   Mostly Cloudy
4:45 PM 37.4 °F 27.8 °F 21.2 °F 52% 29.93 in 10.0 mi WNW 17.3 mph 21.9 mph N/A   Overcast
4:53 PM 37.9 °F 30.5 °F 21.9 °F 53% 29.94 in 10.0 mi West 11.5 mph - N/A   Overcast
5:53 PM 37.9 °F 29.6 °F 26.1 °F 62% 29.94 in 10.0 mi West 13.8 mph 19.6 mph N/A   Overcast
6:53 PM 36.0 °F 32.1 °F 26.1 °F 67% 29.94 in 10.0 mi SE 4.6 mph - N/A   Overcast
7:53 PM 36.0 °F - 24.1 °F 62% 29.93 in 10.0 mi Calm Calm - N/A   Overcast
8:53 PM 34.0 °F 28.8 °F 25.0 °F 70% 29.92 in 10.0 mi West 5.8 mph - N/A   Partly Cloudy
9:53 PM 39.0 °F 34.8 °F 28.9 °F 67% 29.90 in 10.0 mi NW 5.8 mph - N/A   Mostly Cloudy
10:53 PM 39.0 °F 34.8 °F 28.9 °F 67% 29.90 in 10.0 mi West 5.8 mph - N/A   Overcast
11:53 PM 37.9 °F 33.5 °F 30.0 °F 73% 29.89 in 10.0 mi West 5.8 mph - N/A   Mostly Cloudy